Crestview, FL

3:54 AM CDT on July 27, 2017 (GMT -0500)
Sikes

Weather History for KCEW - January, 2013

Change the Weather History Date:

Thursday, January 10, 2013

  Actual Average Record
Temperature  
Mean Temperature 70 °F -  
Max Temperature 75 °F 56 °F 84 °F (1949)
Min Temperature 64 °F 34 °F 19 °F (2001)
Cooling Degree Days 4    
Growing Degree Days 20 (Base 50)    
Moisture  
Dew Point 65 °F    
Average Humidity 86    
Maximum Humidity 94    
Minimum Humidity 76    
Precipitation  
Precipitation 0.00 in - - ()
Sea Level Pressure  
Sea Level Pressure 30.24 in    
Wind  
Wind Speed 7 mph (SE)    
Max Wind Speed 17 mph    
Max Gust Speed 28 mph    
Visibility 8 miles    
Events Rain    
Averages and records for this station are not official NWS values.
T = Trace of Precipitation, MM = Missing Value Source: NWS Daily Summary

Daily Weather History Graph

Daily Weather History Graph

Search for Another Location

Airport or City:

Trip Planner

Search our weather history database for the weather conditions in past years. The results will help you decide how hot, cold, wet, or windy it might be!

Date:

Astronomy

Jan. 10, 2013 Rise Set
Actual Time 6:44 AM CST 5:02 PM CST
Civil Twilight 6:18 AM CST 5:29 PM CST
Nautical Twilight 5:48 AM CST 5:59 PM CST
Astronomical Twilight 5:19 AM CST 6:28 PM CST
Moon 5:24 AM CST (1/10) 4:09 PM CST (1/10)
Length of Visible Light 11h 10m
Length of Day
10h 18m
Waning Crescent, 2% of the Moon is Illuminated
Jan 10
Waning Crescent
Jan 11
New
Jan 18
First Quarter
Jan 26
Full
Feb 3
Last Quarter

Hourly Weather History & Observations

Time (CST) Temp. Dew Point Humidity Pressure Visibility Wind Dir Wind Speed Gust Speed Precip Events Conditions
12:30 AM 66.2 °F 64.4 °F 94% 30.30 in 8.0 mi ENE 3.5 mph - N/A   Overcast
12:53 AM 66.0 °F 64.0 °F 93% 30.30 in 7.0 mi ENE 3.5 mph - N/A   Overcast
1:53 AM 66.9 °F 64.0 °F 90% 30.28 in 7.0 mi East 3.5 mph - N/A   Overcast
2:53 AM 68.0 °F 64.9 °F 90% 30.28 in 6.0 mi East 3.5 mph - N/A   Overcast
3:53 AM 69.1 °F 66.0 °F 90% 30.26 in 7.0 mi ESE 5.8 mph - N/A   Overcast
4:35 AM 68.0 °F 66.2 °F 94% 30.26 in 1.8 mi East 5.8 mph - N/A Rain Heavy Rain
4:48 AM 68.0 °F 66.2 °F 94% 30.26 in 2.0 mi East 5.8 mph - N/A Rain Heavy Rain
4:53 AM 68.0 °F 66.0 °F 93% 30.25 in 1.8 mi East 4.6 mph - N/A Rain Heavy Rain
5:02 AM 68.0 °F 66.2 °F 94% 30.25 in 2.5 mi East 5.8 mph - 0.00 in Rain Rain
5:09 AM 68.0 °F 66.2 °F 94% 30.25 in 4.0 mi East 4.6 mph - N/A Rain Light Rain
5:53 AM 69.1 °F 66.0 °F 90% 30.24 in 5.0 mi ESE 6.9 mph - N/A   Overcast
6:53 AM 69.1 °F 66.9 °F 93% 30.24 in 6.0 mi ESE 8.1 mph - N/A   Overcast
7:23 AM 69.8 °F 66.2 °F 88% 30.25 in 6.0 mi ESE 9.2 mph - N/A   Overcast
7:53 AM 70.0 °F 66.9 °F 90% 30.25 in 6.0 mi ESE 6.9 mph - N/A   Overcast
8:53 AM 71.1 °F 66.9 °F 87% 30.28 in 6.0 mi SE 5.8 mph - N/A   Overcast
9:20 AM 71.6 °F 66.2 °F 83% 30.29 in 8.0 mi SE 5.8 mph - N/A   Overcast
9:53 AM 73.0 °F 66.9 °F 81% 30.29 in 10.0 mi SE 8.1 mph - N/A   Overcast
10:53 AM 75.0 °F 66.9 °F 76% 30.27 in 10.0 mi SE 9.2 mph - N/A   Overcast
11:53 AM 75.0 °F 66.9 °F 76% 30.25 in 10.0 mi South 11.5 mph 20.7 mph N/A   Mostly Cloudy
12:05 PM 73.4 °F 66.2 °F 78% 30.25 in 10.0 mi SSE 10.4 mph 23.0 mph N/A   Mostly Cloudy
12:39 PM 71.6 °F 66.2 °F 83% 30.24 in 9.0 mi SE 16.1 mph 25.3 mph N/A   Overcast
12:53 PM 71.1 °F 66.0 °F 84% 30.23 in 10.0 mi SSE 10.4 mph 19.6 mph N/A   Overcast
1:14 PM 73.4 °F 66.2 °F 78% 30.23 in 10.0 mi SE 6.9 mph 16.1 mph N/A   Overcast
1:49 PM 73.4 °F 66.2 °F 78% 30.23 in 10.0 mi South 12.7 mph 20.7 mph N/A   Overcast
2:53 PM 72.0 °F 64.9 °F 78% 30.21 in 10.0 mi SE 10.4 mph 18.4 mph N/A   Mostly Cloudy
3:04 PM 71.6 °F 64.4 °F 78% 30.23 in 10.0 mi SSE 8.1 mph 19.6 mph N/A   Scattered Clouds
3:09 PM 71.6 °F 64.4 °F 78% 30.23 in 10.0 mi SSE 10.4 mph 19.6 mph N/A   Mostly Cloudy
3:53 PM 71.1 °F 64.9 °F 81% 30.22 in 10.0 mi South 6.9 mph - N/A   Overcast
4:42 PM 69.8 °F 64.4 °F 83% 30.23 in 10.0 mi SSE 5.8 mph - N/A   Mostly Cloudy
4:53 PM 70.0 °F 64.9 °F 84% 30.22 in 10.0 mi SSE 5.8 mph - N/A   Mostly Cloudy
5:53 PM 70.0 °F 64.0 °F 81% 30.20 in 10.0 mi SE 8.1 mph - N/A   Mostly Cloudy
6:53 PM 70.0 °F 63.0 °F 78% 30.20 in 10.0 mi SE 10.4 mph 17.3 mph N/A   Mostly Cloudy
7:37 PM 66.2 °F 64.4 °F 94% 30.20 in 1.5 mi ESE 17.3 mph 24.2 mph N/A Rain Heavy Rain
7:50 PM 68.0 °F 64.4 °F 88% 30.22 in 2.5 mi SE 9.2 mph 27.6 mph N/A Rain Rain
7:53 PM 68.0 °F 64.9 °F 90% 30.21 in 4.0 mi SSE 10.4 mph 24.2 mph N/A Rain Light Rain
8:00 PM 68.0 °F 64.4 °F 88% 30.22 in 9.0 mi SSE 9.2 mph - 0.00 in Rain Light Rain
8:09 PM 66.2 °F 64.4 °F 94% 30.22 in 9.0 mi SSE 11.5 mph 18.4 mph 0.00 in   Overcast
8:53 PM 66.9 °F 64.0 °F 90% 30.21 in 10.0 mi SSE 5.8 mph - 0.00 in   Overcast
9:53 PM 66.0 °F 63.0 °F 90% 30.21 in 10.0 mi SSE 10.4 mph 18.4 mph 0.00 in Rain Light Rain
10:53 PM 64.9 °F 62.1 °F 90% 30.18 in 10.0 mi SE 10.4 mph 23.0 mph 0.00 in Rain Light Rain
11:53 PM 66.0 °F 61.0 °F 84% 30.17 in 10.0 mi Calm Calm - 0.00 in Rain Light Rain